Tracking 30258 objects as of 19-Feb-2025
HD Live streaming from Space Station
objects crossing your sky now

IRIS-C2

Track IRIS-C2 now!
10-day predictions
IRIS-C2 is classified as:


NORAD ID: 58269
Int'l Code: 2023-174P
Perigee: 433.5 km
Apogee: 442.6 km
Inclination: 97.4 °
Period: 93.2 minutes
Semi major axis: 6809 km
RCS: Unknown
Launch date: November 11, 2023
Source: (TBD)
Launch site: AIR FORCE WESTERN TEST RANGE (AFWTR)

Uplink (MHz):
Downlink (MHz): 400.455/2254.000
Beacon (MHz):
Mode: 9600bps BPSK
Call sign: BN0TR1
Status: Active

Your satellite tracking list
Your tracking list is empty




NASA's NSSDC Master Catalog

Two Line Element Set (TLE):
1 58269U 23174P   25050.42894743  .00094878  00000-0  19803-2 0  9999
2 58269  97.4245 132.2908 0006643  81.8913 278.3089 15.45163422 71555
Source of the keplerian elements: AFSPC